Radiation Dose at Monitoring Post of Fukushima Daini Nuclear Power Station
Date,Time,MP-1(microSv/h),MP-2(microSv/h),MP-3(microSv/h),MP-4(microSv/h),MP-5(microSv/h),MP-6(microSv/h),MP-7(microSv/h),Wind Direction,Wind Velocity(m/s),Rain
2020/03/13,00:00,0.178,0.161,0.247,0.243,0.254,0.138,0.085,south-southwest,5.2,No
2020/03/13,00:10,0.179,0.162,0.247,0.243,0.253,0.139,0.084,south-southwest,5.7,No
2020/03/13,00:20,0.178,0.161,0.247,0.243,0.253,0.138,0.084,south-southwest,4.8,No
2020/03/13,00:30,0.178,0.161,0.246,0.243,0.253,0.139,0.084,south-southwest,5.0,No
2020/03/13,00:40,0.178,0.161,0.247,0.243,0.254,0.138,0.084,south-southwest,5.1,No
2020/03/13,00:50,0.179,0.162,0.247,0.242,0.253,0.138,0.085,south-southwest,5.8,No
2020/03/13,01:00,0.178,0.161,0.247,0.243,0.251,0.138,0.085,south-southwest,5.9,No
2020/03/13,01:10,0.178,0.161,0.245,0.242,0.253,0.138,0.085,south-southwest,5.3,No
2020/03/13,01:20,0.179,0.162,0.247,0.243,0.252,0.138,0.084,south-southwest,5.7,No
2020/03/13,01:30,0.179,0.162,0.247,0.242,0.253,0.138,0.084,south-southwest,6.0,No
2020/03/13,01:40,0.178,0.161,0.246,0.244,0.254,0.139,0.084,south-southwest,5.0,No
2020/03/13,01:50,0.179,0.162,0.246,0.243,0.254,0.138,0.084,south-southwest,5.0,No
2020/03/13,02:00,0.178,0.162,0.247,0.242,0.253,0.138,0.084,south,6.0,No
2020/03/13,02:10,0.178,0.161,0.246,0.243,0.254,0.138,0.085,south,6.4,No
2020/03/13,02:20,0.178,0.162,0.247,0.243,0.252,0.138,0.084,south,6.0,No
2020/03/13,02:30,0.179,0.161,0.247,0.242,0.252,0.138,0.085,south,5.7,No
2020/03/13,02:40,0.179,0.161,0.247,0.243,0.253,0.138,0.084,south,5.1,No
2020/03/13,02:50,0.177,0.163,0.247,0.242,0.252,0.138,0.085,south,5.1,No
2020/03/13,03:00,0.179,0.162,0.248,0.244,0.253,0.139,0.084,south-southwest,5.1,No
2020/03/13,03:10,0.178,0.162,0.248,0.243,0.253,0.139,0.085,south,4.6,No
2020/03/13,03:20,0.178,0.161,0.248,0.242,0.253,0.138,0.085,south-southwest,4.1,No
2020/03/13,03:30,0.178,0.163,0.248,0.242,0.253,0.139,0.085,south-southwest,3.1,No
2020/03/13,03:40,0.179,0.163,0.248,0.244,0.254,0.139,0.085,south-southwest,2.8,No
2020/03/13,03:50,0.179,0.162,0.247,0.243,0.253,0.139,0.085,south,2.4,No
2020/03/13,04:00,0.179,0.162,0.248,0.244,0.252,0.138,0.085,south-southeast,3.3,No
2020/03/13,04:10,0.179,0.163,0.248,0.243,0.253,0.138,0.085,south-southeast,2.6,No
2020/03/13,04:20,0.179,0.164,0.249,0.244,0.252,0.139,0.085,southeast,2.7,No
2020/03/13,04:30,0.179,0.162,0.248,0.243,0.254,0.139,0.086,south-southeast,3.2,No
2020/03/13,04:40,0.179,0.163,0.249,0.244,0.254,0.139,0.085,southeast,3.7,No
2020/03/13,04:50,0.178,0.163,0.249,0.243,0.253,0.139,0.085,south-southeast,3.0,No
2020/03/13,05:00,0.180,0.162,0.248,0.245,0.254,0.139,0.085,south,3.6,No
2020/03/13,05:10,0.178,0.162,0.249,0.244,0.255,0.139,0.084,south,3.7,No
2020/03/13,05:20,0.179,0.161,0.248,0.244,0.254,0.138,0.085,south,4.0,No
2020/03/13,05:30,0.178,0.163,0.248,0.243,0.253,0.138,0.085,south,4.5,No
2020/03/13,05:40,0.178,0.162,0.249,0.243,0.254,0.139,0.085,south,4.7,No
2020/03/13,05:50,0.178,0.162,0.250,0.244,0.253,0.138,0.084,south,5.2,No
2020/03/13,06:00,0.178,0.162,0.248,0.243,0.253,0.138,0.084,south,4.3,No
2020/03/13,06:10,0.179,0.162,0.249,0.243,0.252,0.138,0.084,south,4.0,No
2020/03/13,06:20,0.180,0.162,0.249,0.242,0.253,0.139,0.085,south-southwest,3.6,No
2020/03/13,06:30,0.178,0.162,0.248,0.243,0.253,0.138,0.084,southwest,3.1,No
2020/03/13,06:40,0.178,0.162,0.248,0.242,0.253,0.138,0.085,southwest,3.0,No
2020/03/13,06:50,0.178,0.161,0.248,0.243,0.254,0.138,0.084,southwest,4.0,No
2020/03/13,07:00,0.179,0.163,0.248,0.242,0.253,0.139,0.084,southwest,4.9,No
2020/03/13,07:10,0.178,0.162,0.249,0.243,0.253,0.139,0.084,southwest,4.8,No
2020/03/13,07:20,0.179,0.163,0.248,0.243,0.253,0.138,0.085,south-southwest,4.3,No
2020/03/13,07:30,0.179,0.163,0.249,0.243,0.253,0.138,0.084,south-southwest,5.1,No
2020/03/13,07:40,0.178,0.162,0.247,0.243,0.252,0.140,0.084,south-southwest,3.9,No
2020/03/13,07:50,0.179,0.163,0.249,0.242,0.255,0.139,0.084,southwest,3.9,No
2020/03/13,08:00,0.179,0.162,0.248,0.242,0.252,0.139,0.084,south-southwest,3.5,No
2020/03/13,08:10,0.178,0.161,0.248,0.243,0.253,0.138,0.086,south-southwest,3.4,No
2020/03/13,08:20,0.178,0.161,0.249,0.241,0.254,0.139,0.084,south,2.7,No
2020/03/13,08:30,0.179,0.162,0.248,0.244,0.252,0.138,0.083,south,2.1,No
2020/03/13,08:40,0.178,0.161,0.248,0.241,0.255,0.138,0.084,south,2.9,No
2020/03/13,08:50,0.178,0.162,0.247,0.243,0.253,0.139,0.085,south-southwest,2.7,No
2020/03/13,09:00,0.178,0.161,0.248,0.241,0.253,0.138,0.084,south,2.6,No
2020/03/13,09:10,0.178,0.162,0.248,0.239,0.253,0.138,0.084,south-southeast,3.3,No
2020/03/13,09:20,0.178,0.161,0.247,0.238,0.254,0.137,0.085,south-southeast,4.2,No
2020/03/13,09:30,0.178,0.161,0.247,0.239,0.253,0.138,0.084,south-southeast,3.6,No
2020/03/13,09:40,0.178,0.162,0.246,0.238,0.253,0.139,0.085,south-southeast,3.8,No
2020/03/13,09:50,0.178,0.159,0.247,0.240,0.252,0.137,0.085,south-southeast,4.7,No
2020/03/13,10:00,0.178,0.162,0.248,0.238,0.255,0.138,0.084,south-southeast,4.6,No
2020/03/13,10:10,0.180,0.160,0.248,0.238,0.252,0.138,0.085,south,4.1,No
2020/03/13,10:20,0.178,0.162,0.248,0.237,0.254,0.139,0.084,south-southeast,6.9,No
2020/03/13,10:30,0.177,0.160,0.248,0.238,0.253,0.138,0.085,south-southeast,5.3,No
2020/03/13,10:40,0.179,0.160,0.246,0.237,0.254,0.138,0.084,south-southeast,8.2,No
2020/03/13,10:50,0.177,0.160,0.247,0.237,0.253,0.139,0.085,south-southeast,7.9,No
2020/03/13,11:00,0.178,0.162,0.246,-,0.253,0.138,0.084,south-southeast,8.2,No
2020/03/13,11:10,0.178,0.162,0.248,-,0.254,0.139,0.084,south-southeast,9.3,No
2020/03/13,11:20,0.178,0.162,0.248,-,0.252,0.139,0.084,south-southeast,9.8,No
2020/03/13,11:30,0.179,0.162,0.245,-,0.254,0.138,0.084,south-southeast,9.6,No
2020/03/13,11:40,0.176,0.163,0.247,-,0.253,0.138,0.085,south,10.1,No
2020/03/13,11:50,0.179,0.161,0.246,-,0.250,0.139,0.084,south,11.1,No
2020/03/13,12:00,0.178,0.161,0.245,-,0.255,0.138,0.084,south,9.3,No
2020/03/13,12:10,0.176,0.161,0.246,-,0.253,0.139,0.084,south,9.3,No
2020/03/13,12:20,0.178,0.161,0.246,-,0.253,0.138,0.084,south,10.1,No
2020/03/13,12:30,0.177,0.162,0.247,-,0.255,0.139,0.084,south-southeast,9.5,No
2020/03/13,12:40,0.177,0.162,0.247,-,0.251,0.139,0.085,south-southeast,8.7,No
2020/03/13,12:50,0.180,0.163,0.246,-,0.255,0.138,0.085,south-southeast,7.4,No
2020/03/13,13:00,0.177,0.162,0.247,-,0.251,0.139,0.084,south,7.8,No
2020/03/13,13:10,0.177,0.162,0.247,-,0.252,0.137,0.084,south,6.8,No
2020/03/13,13:20,0.179,0.162,0.247,-,0.253,0.138,0.084,south,6.6,No
2020/03/13,13:30,0.178,0.163,0.247,-,0.252,0.138,0.084,south,4.9,No
2020/03/13,13:40,0.178,0.162,0.245,-,0.255,0.139,0.084,south,4.8,No
2020/03/13,13:50,0.178,0.162,0.248,-,0.253,0.139,0.085,west,3.8,No
2020/03/13,14:00,0.177,0.162,0.247,-,0.252,0.139,0.083,west,5.7,No
2020/03/13,14:10,0.178,0.162,0.247,-,0.256,0.139,0.085,west-northwest,4.5,No
2020/03/13,14:20,0.179,0.163,0.248,-,0.254,0.139,0.084,west-northwest,5.5,No
2020/03/13,14:30,0.177,0.162,0.248,-,0.250,0.139,0.084,west,4.6,No
2020/03/13,14:40,0.179,0.163,0.249,-,0.254,0.138,0.085,west,4.7,No
2020/03/13,14:50,0.179,0.162,0.247,-,0.254,0.136,0.085,west,5.7,No
2020/03/13,15:00,0.177,0.161,0.248,-,0.252,0.136,0.085,west,3.5,No
2020/03/13,15:10,0.179,0.164,0.247,-,0.253,0.136,0.084,west,4.1,No
2020/03/13,15:20,0.179,0.163,0.248,0.230,0.256,0.138,0.084,west,4.9,No
2020/03/13,15:30,0.177,0.163,0.248,0.237,0.253,0.138,0.084,west,2.6,No
2020/03/13,15:40,0.180,0.163,0.250,0.237,0.257,0.138,0.085,west,2.1,No
2020/03/13,15:50,0.178,0.163,0.248,0.239,0.253,0.139,0.085,west-northwest,1.1,No
2020/03/13,16:00,0.178,0.164,0.250,0.237,0.255,0.138,0.086,west-southwest,1.4,No
2020/03/13,16:10,0.179,0.163,0.250,0.245,0.255,0.138,0.085,northwest,3.1,No
2020/03/13,16:20,0.179,0.163,0.249,0.245,0.253,0.139,0.085,west-northwest,2.3,No
2020/03/13,16:30,0.179,0.164,0.249,0.246,0.255,0.138,0.084,west-northwest,4.3,No
2020/03/13,16:40,0.178,0.162,0.250,0.245,0.254,0.139,0.085,west,3.5,No
2020/03/13,16:50,0.181,0.163,0.250,0.248,0.254,0.138,0.085,west,2.8,No
2020/03/13,17:00,0.180,0.163,0.251,0.246,0.253,0.138,0.085,west,5.4,No
2020/03/13,17:10,0.179,0.162,0.249,0.246,0.255,0.139,0.085,west,6.7,No
2020/03/13,17:20,0.179,0.162,0.249,0.246,0.255,0.138,0.084,west,7.3,No
2020/03/13,17:30,0.180,0.162,0.250,0.245,0.254,0.138,0.084,west,5.7,No
2020/03/13,17:40,0.179,0.163,0.249,0.246,0.255,0.139,0.085,west,3.2,No
2020/03/13,17:50,0.178,0.162,0.250,0.246,0.253,0.138,0.084,west,2.6,No
2020/03/13,18:00,0.180,0.162,0.250,0.246,0.256,0.138,0.084,west-northwest,3.4,No
2020/03/13,18:10,0.179,0.163,0.250,0.245,0.252,0.139,0.084,west,4.2,No
2020/03/13,18:20,0.179,0.162,0.250,0.245,0.256,0.138,0.084,northwest,2.8,No
2020/03/13,18:30,0.180,0.162,0.249,0.246,0.254,0.139,0.084,west-northwest,2.5,No
2020/03/13,18:40,0.178,0.162,0.251,0.245,0.254,0.139,0.084,northwest,2.5,No
2020/03/13,18:50,0.179,0.162,0.250,0.246,0.255,0.140,0.084,north-northwest,1.7,No
2020/03/13,19:00,0.178,0.163,0.251,0.245,0.253,0.138,0.083,north-northwest,2.1,No
2020/03/13,19:10,0.179,0.163,0.251,0.245,0.255,0.138,0.084,northwest,4.0,No
2020/03/13,19:20,0.178,0.162,0.250,0.247,0.254,0.138,0.085,west-northwest,4.7,No
2020/03/13,19:30,0.178,0.164,0.251,0.245,0.255,0.139,0.084,north-northwest,4.0,No
2020/03/13,19:40,0.180,0.163,0.251,0.246,0.255,0.138,0.085,north-northwest,4.2,No
2020/03/13,19:50,0.179,0.163,0.250,0.247,0.254,0.139,0.085,north-northwest,4.6,No
2020/03/13,20:00,0.179,0.163,0.251,0.246,0.256,0.139,0.084,north-northwest,5.2,No
2020/03/13,20:10,0.179,0.163,0.251,0.246,0.254,0.139,0.084,north-northwest,4.4,No
2020/03/13,20:20,0.179,0.163,0.251,0.246,0.255,0.139,0.084,north-northwest,4.1,No
2020/03/13,20:30,0.181,0.163,0.252,0.244,0.254,0.138,0.084,northwest,7.1,No
2020/03/13,20:40,0.178,0.162,0.251,0.246,0.254,0.138,0.085,northwest,5.8,No
2020/03/13,20:50,0.178,0.163,0.251,0.246,0.256,0.139,0.084,north,4.1,No
2020/03/13,21:00,0.179,0.164,0.251,0.246,0.253,0.140,0.085,north-northeast,7.2,No
2020/03/13,21:10,0.179,0.162,0.250,0.246,0.254,0.139,0.085,north-northeast,8.2,No
2020/03/13,21:20,0.178,0.162,0.250,0.247,0.255,0.139,0.084,north-northeast,9.2,No
2020/03/13,21:30,0.179,0.163,0.251,0.246,0.253,0.138,0.084,north,5.6,No
2020/03/13,21:40,0.180,0.163,0.252,0.246,0.254,0.139,0.084,north-northeast,7.8,No
2020/03/13,21:50,0.179,0.163,0.252,0.246,0.253,0.139,0.084,north-northeast,6.7,No
2020/03/13,22:00,0.180,0.164,0.253,0.245,0.255,0.139,0.084,northeast,6.2,No
2020/03/13,22:10,0.178,0.164,0.253,0.245,0.254,0.139,0.085,northeast,5.0,No
2020/03/13,22:20,0.180,0.163,0.252,0.246,0.255,0.139,0.085,northeast,5.9,No
2020/03/13,22:30,0.179,0.163,0.253,0.245,0.255,0.138,0.084,northeast,5.7,No
2020/03/13,22:40,0.178,0.163,0.253,0.245,0.253,0.139,0.084,northeast,7.0,No
2020/03/13,22:50,0.180,0.163,0.253,0.247,0.254,0.138,0.085,northeast,7.4,No
2020/03/13,23:00,0.179,0.163,0.253,0.246,0.254,0.139,0.084,northeast,7.3,No
2020/03/13,23:10,0.180,0.163,0.252,0.246,0.253,0.139,0.084,northeast,6.4,No
2020/03/13,23:20,0.181,0.163,0.253,0.246,0.254,0.139,0.084,north-northeast,6.8,No
2020/03/13,23:30,0.179,0.163,0.252,0.246,0.254,0.139,0.084,north-northeast,7.6,No
2020/03/13,23:40,0.179,0.163,0.253,0.246,0.254,0.138,0.084,northeast,7.0,No
2020/03/13,23:50,0.180,0.164,0.251,0.246,0.253,0.138,0.085,north-northeast,6.3,No
